Presure
121 126 166 134 132 150 105 100 113 142 168 123 126 126 141 145 122 121 116 138 174 109 137 109 180 142 128 119 124 121 180 155 218 159 249 227 237 242 240 229 226 227 240
151 128 145 150 100 109 167 133 173 172 139 167 175 167 133 123 127 109 115 137 136 124 114 154 135 125 114 121 127 214 148 144 165 252 185 231 231 236 149 233 218 208 233
123 123 134 106 102 108 170 179 150 178 168 169 164 127 140 185 144 117 190 160 135 110 123 182 124 119 124 187 177 153 132 225 240 241 174 230 226 233 217 223 206 211 226
112 127 126 146 153 186 148 172 166 124 134 158 148 176 181 149 180 175 186 137 159 117 128 198 131 161 138 214 167 182 142 238 170 226 224 232 227 223 219 216 218 221 226
139 130 122 182 160 177 170 166 130 177 182 171 170 192 205 195 176 133 127 190 179 194 170 180 196 125 197 192 206 229 216 218 226 236 228 230 229 228 233 198 222 192 226
174 167 125 165 181 178 174 190 146 181 159 156 184 186 199 177 174 188 163 125 169 181 122 121 179 190 199 215 207 212 217 196 232 233 228 230 228 215 229 203 217 178 233
164 125 126 174 171 169 179 184 191 143 145 185 186 127 177 201 133 128 192 186 204 118 144 184 200 144 212 218 142 218 233 239 221 233 239 236 224 213 223 222 223 222 226
127 116 145 134 177 188 192 126 155 162 159 146 131 125 151 154 149 144 182 151 121 173 182 181 194 225 200 220 217 201 237 219 221 228 231 230 220 226 222 224 209 212 217
116 115 160 171 164 175 177 125 129 124 123 147 117 131 110 165 143 189 189 127 193 197 187 193 222 147 208 229 186 227 206 222 227 225 196 206 197 197 195 199 205 200 204
119 163 146 183 179 183 194 202 179 126 186 132 176 118 137 183 195 185 191 209 183 200 191 224 218 208 216 184 219 214 224 215 221 211 189 201 198 201 199 204 193 192 181
114 112 116 179 121 125 111 126 136 133 137 133 135 137 164 174 189 185 192 201 192 195 221 227 213 218 213 234 203 221 210 225 212 224 185 187 190 186 196 189 180 183 184
123 120 162 208 163 108 189 195 194 159 130 192 167 182 183 194 188 192 201 181 227 190 230 217 211 231 204 219 221 214 205 209 204 237 174 183 184 190 186 181 184 190 183
194 187 176 124 198 189 117 116 136 136 184 133 185 148 204 195 190 203 208 206 139 218 219 199 207 216 216 219 224 209 197 202 212 210 195 175 181 185 187 190 190 185 195
108 195 188 128 203 137 121 129 128 135 147 189 181 204 198 202 202 205 147 229 239 212 223 209 214 210 224 207 205 202 202 203 192 192 182 182 183 188 186 192 195 186 193
192 190 220 164 193 171 194 189 184 195 191 196 209 214 194 208 223 238 238 225 205 216 211 215 215 216 216 202 202 202 197 192 192 190 190 188 191 190 189 190 190 190 197
197 138 169 195 195 190 192 208 206 201 205 200 198 204 206 255 235 241 227 211 218 210 207 209 215 203 196 197 190 189 191 190 193 195 193 192 190 192 195 198 197 198 196
214 218 221 211 188 193 182 187 205 192 199 202 228 245 240 225 226 223 211 224 218 213 211 210 192 192 191 192 192 193 185 192 200 180 183 188 187 190 188 185 188 189 189
213 197 199 205 205 202 201 196 201 198 234 216 219 223 217 215 214 219 218 215 208 206 206 194 192 187 193 193 191 187 192 193 184 178 189 194 186 186 188 190 194 196 201
208 200 199 200 201 201 196 213 211 213 207 224 212 214 209 217 210 215 211 205 206 201 189 189 193 190 192 192 198 195 190 190 194 188 153 188 187 192 190 188 190 197 199
201 200 201 203 225 203 165 214 141 209 215 219 205 207 206 206 214 211 206 205 206 198 193 193 184 193 197 198 185 182 196 100 189 168 193 192 193 190 190 191 192 194 199
203 237 248 226 237 158 227 182 214 233 204 202 204 204 208 215 216 208 203 201 200 196 190 192 198 202 201 184 184 192 193 129 193 201 194 189 193 196 195 196 202 201 197
230 216 226 215 227 242 238 200 204 209 208 213 216 219 224 209 194 195 193 193 195 197 202 207 203 191 184 191 193 196 200 193 192 189 194 196 197 201 204 204 203 202 204
224 226 216 209 195 212 219 225 231 231 211 197 216 188 191 193 197 201 203 205 205 205 200 189 198 191 204 205 202 197 198 198 205 208 208 211 219 224 226 225 228 222 222
232 241 244 233 228 210 201 201 202 195 193 195 204 208 207 207 207 207 205 203 203 207 210 205 205 204 201 207 211 213 210 222 221 224 231 235 239 236 236 246 271 264 266
215 206 201 198 202 202 198 193 204 207 203 201 191 184 198 205 208 210 206 206 208 210 209 210 206 207 210 211 214 218 218 235 241 251 318 308 315 332 321 296 298 285 284
202 202 204 203 193 197 200 202 204 203 194 194 194 200 200 198 203 209 210 201 197 199 205 205 210 214 216 231 275 283 270 288 306 315 331 403 513 515 499 494 453 486 493
Wind_Speed
39 46 71 54 52 62 43 43 52 69 77 55 58 60 66 67 56 63 56 76 81 57 69 64 83 76 68 69 70 70 99 74 86 67 60 67 52 50 49 47 41 32 30
66 47 54 67 40 45 72 58 74 75 65 77 79 78 62 57 59 54 57 65 80 60 63 96 70 66 69 72 72 95 87 78 91 56 65 55 54 51 37 43 38 37 33
44 48 55 44 42 45 75 81 68 78 75 77 78 58 68 89 76 56 90 78 64 60 63 82 67 69 72 87 94 93 77 81 63 57 74 54 53 50 50 43 35 34 32
46 52 52 64 70 91 67 79 76 59 63 74 72 88 90 71 86 86 89 65 77 61 67 91 71 92 76 92 99 82 72 63 67 59 54 50 53 52 50 45 39 34 29
58 55 51 91 74 85 78 76 65 88 93 87 82 97 99 90 86 63 59 92 87 92 83 85 88 73 94 94 98 72 72 71 59 54 53 49 50 50 46 43 41 24 29
91 82 53 75 89 88 88 97 67 91 71 77 90 93 95 85 82 91 82 63 81 87 68 71 84 90 89 93 89 74 65 65 53 53 51 47 45 44 41 37 40 30 29
81 51 54 88 84 82 94 95 100 74 74 94 97 61 87 97 64 63 95 90 102 67 77 87 101 80 90 73 78 65 54 51 51 48 47 44 39 41 39 34 31 29 25
61 53 74 61 93 100 96 65 82 73 82 73 65 60 74 76 76 71 91 78 67 85 85 93 101 82 75 67 63 63 48 51 50 43 39 37 36 34 32 28 28 26 23
54 55 82 88 87 94 93 65 66 66 62 75 59 65 59 84 71 95 95 68 95 99 92 97 80 77 76 63 66 57 55 47 44 40 35 31 34 36 38 35 29 27 27
57 86 65 97 92 98 106 103 90 68 98 68 92 63 70 92 102 94 96 106 88 106 98 82 74 72 62 70 62 57 48 47 41 37 35 32 32 35 35 34 33 30 30
55 54 57 96 61 64 56 66 73 70 74 68 70 70 85 91 96 93 101 102 100 104 92 72 72 64 59 56 58 49 51 49 42 40 39 38 35 34 36 38 38 37 32
63 62 85 90 87 56 100 102 101 83 68 105 87 97 94 102 98 97 106 87 92 76 68 70 64 60 63 56 53 51 51 49 46 46 45 41 41 38 39 41 42 42 41
100 101 98 65 100 102 61 63 75 74 99 72 96 76 108 105 101 106 104 99 76 73 67 73 64 59 59 54 52 52 50 51 51 48 45 47 44 44 44 43 44 45 46
53 99 96 65 97 73 68 75 75 75 80 101 91 105 101 100 96 100 76 79 66 71 66 65 63 61 64 58 56 54 53 50 47 48 49 50 50 49 47 49 48 46 48
95 95 78 85 104 78 97 95 93 98 101 101 102 98 92 97 92 74 70 69 74 69 66 64 63 63 63 61 59 58 55 52 52 54 55 56 56 55 52 51 51 52 52
91 67 86 100 93 92 91 93 94 94 94 96 100 99 95 64 72 65 66 69 67 67 67 63 63 64 64 65 63 62 62 59 59 59 59 60 60 60 58 57 55 54 54
83 81 78 84 79 82 84 91 87 90 94 99 87 71 74 73 72 69 69 69 68 66 67 65 65 66 67 68 69 70 68 69 68 59 60 62 63 62 62 62 62 59 59
72 77 80 75 77 80 84 85 91 91 73 90 90 85 82 79 78 77 74 72 71 69 66 65 67 69 72 73 73 72 75 74 69 70 70 70 67 67 68 69 69 69 66
68 69 70 73 76 83 82 79 78 75 86 72 82 84 87 87 80 79 75 74 73 72 72 72 72 73 74 76 79 77 75 75 77 75 62 74 74 77 76 76 76 78 76
68 70 71 79 69 80 67 59 77 72 76 75 78 81 84 84 85 80 78 78 78 76 75 77 76 80 81 80 76 77 82 44 81 73 82 82 84 83 84 86 86 84 84
71 63 49 60 52 71 59 70 64 67 71 76 79 81 83 83 83 80 79 80 80 80 81 83 84 85 85 80 81 85 88 63 88 92 90 90 93 95 92 90 94 93 90
59 62 58 60 55 46 56 65 67 67 71 74 77 81 81 77 80 80 83 84 85 87 89 90 89 86 85 90 93 94 94 94 96 97 101 104 107 108 110 110 109 107 106
51 49 52 56 57 56 56 60 62 63 66 68 73 77 79 81 82 84 86 88 89 91 91 90 93 93 95 97 96 97 97 98 102 106 106 110 114 116 118 117 118 113 114
44 42 41 43 45 52 56 58 59 64 67 71 73 75 77 80 83 85 86 88 90 92 92 94 96 97 98 102 104 107 105 115 111 112 121 124 126 128 123 127 125 126 127
38 43 48 51 51 53 56 60 61 62 65 68 73 77 75 77 79 81 83 86 89 91 94 97 98 101 106 109 113 119 119 127 128 126 117 116 117 124 119 122 127 133 132
44 46 48 50 55 56 57 59 62 65 67 69 71 74 75 78 80 82 84 86 89 93 98 102 109 111 116 121 112 112 112 116 124 125 130 112 66 59 64 67 66 70 70
Wind_Direction
293 290 281 285 282 278 277 282 281 283 277 280 281 279 285 284 279 281 278 284 284 279 282 279 294 290 285 279 281 281 287 294 311 289 300 290 294 292 291 282 264 267 282
288 291 294 286 286 279 282 279 282 282 288 285 287 283 281 279 281 280 282 292 285 282 279 285 293 284 280 282 286 311 286 293 291 299 293 295 295 293 287 291 267 263 286
290 287 288 285 286 288 287 286 284 286 284 285 283 282 285 293 286 279 293 290 287 282 288 296 288 285 287 308 285 290 292 310 306 301 290 297 294 291 291 290 268 269 282
282 286 286 288 287 279 283 284 285 283 284 285 286 288 291 289 293 287 293 287 290 286 290 306 290 290 293 313 288 305 295 306 292 304 302 295 291 290 291 292 287 291 288
286 284 282 278 287 286 289 288 284 289 288 286 285 292 296 293 289 292 289 298 293 302 298 295 308 291 314 309 309 307 309 309 303 299 300 298 294 294 296 287 294 267 292
280 286 284 286 284 286 288 287 285 288 284 287 292 295 294 292 296 297 290 291 292 295 291 289 306 310 308 310 308 306 305 304 301 298 299 297 297 298 298 293 292 254 297
280 284 284 286 287 288 287 288 288 288 289 293 292 291 296 301 295 294 299 296 306 290 293 306 313 294 309 305 294 305 301 298 301 300 297 297 298 297 299 300 298 298 297
280 279 283 282 287 288 284 284 288 287 291 289 290 294 287 293 294 292 300 296 288 299 306 307 308 305 304 304 305 303 300 301 302 300 300 299 297 299 299 300 295 297 293
278 282 285 285 284 287 290 286 289 290 292 293 298 295 296 295 292 299 302 289 307 307 307 307 306 295 305 303 301 301 301 301 303 297 288 296 294 293 293 293 291 290 289
280 279 286 280 284 285 285 288 293 287 294 289 295 295 294 294 299 298 305 302 305 307 306 305 305 302 302 302 304 303 297 296 301 289 283 294 294 291 291 289 286 285 265
286 289 287 282 287 285 293 287 288 287 291 292 293 294 295 298 298 301 303 301 304 302 304 300 300 300 301 298 297 299 299 301 299 288 285 285 285 281 288 283 278 281 280
284 287 280 272 288 291 288 287 289 290 294 292 292 293 296 298 299 300 299 303 303 299 300 299 299 299 296 295 293 295 298 300 300 289 280 283 284 284 279 279 281 281 277
271 275 280 287 280 285 293 294 294 293 292 294 292 295 294 296 298 298 298 300 294 299 299 298 297 297 295 294 292 296 299 300 301 298 285 282 280 281 280 279 276 276 279
291 276 281 289 284 290 294 292 293 293 292 292 290 291 295 294 297 298 296 300 297 296 297 294 298 296 299 295 297 299 300 300 295 293 285 284 283 280 280 282 278 273 272
272 276 278 284 280 288 285 288 289 287 289 289 290 291 294 295 297 295 296 298 297 297 296 298 296 296 297 298 299 301 298 294 293 288 286 285 284 284 282 279 277 276 273
268 284 278 278 280 283 285 285 285 288 289 289 288 291 293 288 299 297 297 293 294 294 294 294 297 298 301 301 296 296 295 294 292 290 290 288 286 284 282 280 278 275 271
270 273 275 278 284 283 285 285 287 287 288 289 290 294 294 300 301 301 296 301 298 296 297 299 298 297 298 298 297 296 295 295 293 284 284 282 280 279 278 277 274 269 267
275 276 279 284 286 286 286 285 288 287 289 291 296 299 303 302 304 306 303 300 298 298 297 295 295 295 296 296 295 293 292 293 290 287 287 286 282 281 280 278 276 273 270
279 279 282 285 287 285 282 286 288 289 292 288 297 297 303 299 302 300 299 299 300 298 295 296 296 296 295 294 293 292 291 289 289 286 282 284 282 282 279 276 275 277 273
281 283 285 286 282 285 292 286 297 288 292 287 295 296 297 298 298 299 300 299 297 297 297 297 296 295 294 293 290 287 290 283 286 286 286 283 281 278 276 275 274 273 272
282 282 280 282 273 290 261 294 291 279 291 292 293 294 295 294 296 297 298 298 299 299 296 295 294 294 294 291 291 289 288 286 287 288 285 283 283 282 278 274 274 271 269
283 287 285 285 285 265 265 286 286 287 288 289 291 289 290 296 297 300 299 298 297 296 295 295 294 294 294 294 293 291 289 289 287 286 284 281 280 278 276 273 272 271 269
281 280 278 280 286 282 281 280 283 287 289 290 290 295 298 298 297 296 296 296 295 295 296 296 294 292 288 287 287 286 283 282 280 279 279 279 279 277 275 273 270 266 263
282 282 283 285 285 290 293 294 292 292 293 295 294 295 295 295 295 296 296 296 294 293 292 293 292 291 290 288 288 289 291 290 290 289 285 282 281 280 280 276 265 263 262
288 289 288 288 289 289 292 292 291 293 295 296 296 298 297 296 296 295 295 295 294 294 294 293 293 294 295 296 295 294 293 290 289 287 290 285 284 288 275 267 266 266 266
286 286 286 287 286 288 290 292 295 294 292 293 294 295 295 296 296 296 297 296 294 295 297 298 297 298 297 295 298 298 293 298 298 297 296 293 288 285 281 277 271 271 270